TimeCDT,TemperatureF,Dew PointF,Humidity,Sea Level PressureIn,VisibilityMPH,Wind Direction,Wind SpeedMPH,Gust SpeedMPH,PrecipitationIn,Events,Conditions,WindDirDegrees,DateUTC
12:15 AM,54.1,53.8,99,30.06,10.0,Calm,Calm,-,N/A,,Clear,0,2013-10-09 05:15:00
12:35 AM,53.6,53.2,99,30.06,10.0,Calm,Calm,-,N/A,,Clear,0,2013-10-09 05:35:00
12:55 AM,53.6,53.6,100,30.06,10.0,Calm,Calm,-,N/A,,Clear,0,2013-10-09 05:55:00
1:15 AM,53.6,53.2,99,30.05,7.0,Calm,Calm,-,N/A,,Clear,0,2013-10-09 06:15:00
1:35 AM,52.7,52.7,100,30.05,10.0,Calm,Calm,-,N/A,,Clear,0,2013-10-09 06:35:00
1:55 AM,52.5,52.3,99,30.05,10.0,Calm,Calm,-,N/A,,Clear,0,2013-10-09 06:55:00
2:15 AM,52.2,52.0,99,30.05,10.0,Calm,Calm,-,N/A,,Clear,0,2013-10-09 07:15:00
2:35 AM,50.9,50.9,100,30.05,10.0,Calm,Calm,-,N/A,,Clear,0,2013-10-09 07:35:00
2:55 AM,51.1,51.1,100,30.05,10.0,Calm,Calm,-,N/A,,Clear,0,2013-10-09 07:55:00
3:15 AM,50.7,50.5,99,30.05,10.0,Calm,Calm,-,N/A,,Clear,0,2013-10-09 08:15:00
3:35 AM,50.9,50.9,100,30.04,10.0,Calm,Calm,-,N/A,,Clear,0,2013-10-09 08:35:00
3:55 AM,50.0,49.8,99,30.04,10.0,Calm,Calm,-,N/A,,Clear,0,2013-10-09 08:55:00
4:15 AM,50.9,50.9,100,30.04,10.0,Calm,Calm,-,N/A,,Clear,0,2013-10-09 09:15:00
4:35 AM,50.2,50.2,100,30.05,7.0,Calm,Calm,-,N/A,,Clear,0,2013-10-09 09:35:00
4:55 AM,49.6,49.5,99,30.05,10.0,Calm,Calm,-,N/A,,Clear,0,2013-10-09 09:55:00
5:15 AM,49.3,49.3,100,30.06,10.0,Calm,Calm,-,N/A,,Clear,0,2013-10-09 10:15:00
5:35 AM,49.1,49.1,100,30.06,10.0,Calm,Calm,-,N/A,,Clear,0,2013-10-09 10:35:00
5:55 AM,49.1,48.7,99,30.06,10.0,Calm,Calm,-,N/A,,Clear,0,2013-10-09 10:55:00
6:15 AM,49.1,49.1,100,30.06,7.0,Calm,Calm,-,N/A,,Clear,0,2013-10-09 11:15:00
6:35 AM,48.4,48.4,100,30.06,10.0,Calm,Calm,-,N/A,,Clear,0,2013-10-09 11:35:00
6:55 AM,47.7,47.7,100,30.07,10.0,Calm,Calm,-,N/A,,Clear,0,2013-10-09 11:55:00
7:15 AM,47.8,47.7,99,30.07,10.0,Calm,Calm,-,N/A,,Clear,0,2013-10-09 12:15:00
7:35 AM,48.9,48.9,100,30.08,10.0,Calm,Calm,-,N/A,,Clear,0,2013-10-09 12:35:00
7:55 AM,50.4,50.4,100,30.09,10.0,Calm,Calm,-,N/A,,Clear,0,2013-10-09 12:55:00
8:15 AM,52.7,52.2,98,30.09,10.0,Calm,Calm,-,N/A,,Clear,0,2013-10-09 13:15:00
8:35 AM,56.3,54.7,94,30.10,10.0,Calm,Calm,-,N/A,,Clear,0,2013-10-09 13:35:00
8:55 AM,59.4,56.3,90,30.10,10.0,Calm,Calm,-,N/A,,Clear,0,2013-10-09 13:55:00
9:15 AM,62.2,56.7,82,30.11,10.0,Calm,Calm,-,N/A,,Clear,0,2013-10-09 14:15:00
9:35 AM,64.4,56.3,75,30.11,10.0,Calm,Calm,-,N/A,,Clear,0,2013-10-09 14:35:00
9:55 AM,66.4,54.9,66,30.12,10.0,Calm,Calm,-,N/A,,Clear,0,2013-10-09 14:55:00
10:15 AM,68.0,55.9,65,30.12,10.0,Calm,Calm,-,N/A,,Clear,0,2013-10-09 15:15:00
10:35 AM,69.1,55.9,63,30.13,10.0,Calm,Calm,-,N/A,,Clear,0,2013-10-09 15:35:00
10:55 AM,70.7,55.0,58,30.13,10.0,Calm,Calm,-,N/A,,Clear,0,2013-10-09 15:55:00
11:15 AM,72.1,55.9,57,30.12,10.0,Calm,Calm,-,N/A,,Clear,0,2013-10-09 16:15:00
11:35 AM,73.6,55.8,54,30.12,10.0,Calm,Calm,-,N/A,,Clear,0,2013-10-09 16:35:00
11:55 AM,74.3,55.8,52,30.12,10.0,NE,3.5,-,N/A,,Clear,50,2013-10-09 16:55:00
12:15 PM,75.2,54.5,48,30.11,10.0,Calm,Calm,-,N/A,,Clear,0,2013-10-09 17:15:00
12:35 PM,75.4,55.6,50,30.11,10.0,SSW,3.5,-,N/A,,Clear,210,2013-10-09 17:35:00
12:55 PM,75.6,54.9,48,30.10,10.0,Calm,Calm,-,N/A,,Clear,0,2013-10-09 17:55:00
1:15 PM,76.6,55.4,48,30.09,10.0,SW,3.5,-,N/A,,Clear,220,2013-10-09 18:15:00
1:35 PM,76.5,54.3,46,30.08,10.0,North,4.6,-,N/A,,Clear,10,2013-10-09 18:35:00
1:55 PM,76.8,52.7,43,30.08,10.0,Calm,Calm,-,N/A,,Clear,0,2013-10-09 18:55:00
2:15 PM,77.2,54.3,45,30.07,10.0,SSW,3.5,-,N/A,,Clear,200,2013-10-09 19:15:00
2:35 PM,78.1,54.1,43,30.06,10.0,SE,3.5,-,N/A,,Clear,130,2013-10-09 19:35:00
2:55 PM,78.6,53.4,42,30.06,10.0,Calm,Calm,-,N/A,,Clear,0,2013-10-09 19:55:00
3:15 PM,78.8,53.8,42,30.05,10.0,South,3.5,-,N/A,,Clear,170,2013-10-09 20:15:00
3:55 PM,79.3,54.1,42,30.05,10.0,Calm,Calm,-,N/A,,Clear,0,2013-10-09 20:55:00
4:15 PM,79.2,54.3,42,30.05,10.0,Calm,Calm,-,N/A,,Clear,0,2013-10-09 21:15:00
4:35 PM,79.2,54.3,42,30.04,10.0,North,3.5,-,N/A,,Clear,10,2013-10-09 21:35:00
4:55 PM,78.6,54.3,43,30.04,10.0,ENE,5.8,-,N/A,,Clear,70,2013-10-09 21:55:00
5:15 PM,78.6,54.9,44,30.03,10.0,Calm,Calm,-,N/A,,Clear,0,2013-10-09 22:15:00
5:35 PM,78.1,54.5,44,30.03,10.0,Calm,Calm,-,N/A,,Clear,0,2013-10-09 22:35:00
5:55 PM,77.4,57.6,50,30.03,10.0,Calm,Calm,-,N/A,,Clear,0,2013-10-09 22:55:00
6:15 PM,72.0,61.7,70,30.03,10.0,Calm,Calm,-,N/A,,Clear,0,2013-10-09 23:15:00
6:55 PM,66.4,60.8,82,30.03,10.0,Calm,Calm,-,N/A,,Clear,0,2013-10-09 23:55:00
7:15 PM,63.5,59.5,87,30.04,10.0,Calm,Calm,-,N/A,,Clear,0,2013-10-10 00:15:00
7:35 PM,63.9,60.1,87,30.04,10.0,Calm,Calm,-,N/A,,Clear,0,2013-10-10 00:35:00
7:55 PM,62.4,59.9,91,30.04,10.0,Calm,Calm,-,N/A,,Clear,0,2013-10-10 00:55:00
8:15 PM,60.8,58.8,93,30.04,10.0,Calm,Calm,-,N/A,,Clear,0,2013-10-10 01:15:00
8:35 PM,60.8,59.2,94,30.05,10.0,Calm,Calm,-,N/A,,Clear,0,2013-10-10 01:35:00
8:55 PM,60.3,58.5,94,30.06,10.0,Calm,Calm,-,N/A,,Clear,0,2013-10-10 01:55:00
9:15 PM,59.9,58.6,96,30.06,10.0,Calm,Calm,-,N/A,,Clear,0,2013-10-10 02:15:00
9:35 PM,59.5,58.3,96,30.06,10.0,Calm,Calm,-,N/A,,Clear,0,2013-10-10 02:35:00
9:55 PM,59.2,58.5,97,30.06,10.0,Calm,Calm,-,N/A,,Clear,0,2013-10-10 02:55:00
10:15 PM,57.9,57.4,98,30.06,10.0,Calm,Calm,-,N/A,,Clear,0,2013-10-10 03:15:00
10:35 PM,58.1,57.6,98,30.06,10.0,Calm,Calm,-,N/A,,Clear,0,2013-10-10 03:35:00
10:55 PM,57.2,57.0,99,30.07,10.0,Calm,Calm,-,N/A,,Clear,0,2013-10-10 03:55:00
11:15 PM,57.2,56.8,99,30.06,10.0,Calm,Calm,-,N/A,,Clear,0,2013-10-10 04:15:00
11:55 PM,56.5,56.3,99,30.06,10.0,Calm,Calm,-,N/A,,Clear,0,2013-10-10 04:55:00